Miscellaneous Local Product
Issued by NWS Hastings, NE

Home | Current Version | Previous Version | Text Only | Print | Product List | Glossary Off
Versions: 1 2 3 4 5 6 7 8 9 10 11 12 13 14 15 16 17 18 19 20 21 22 23 24 25 26 27 28 29 30 31 32 33 34 35 36 37 38 39 40 41 42 43 44 45 46 47 48 49 50

000
AXUS43 KGID 261002
MISGRI

GID CWA HOURLY WEATHER ROUNDUP
NATIONAL WEATHER SERVICE HASTINGS NE
500 AM CDT THU MAR 26 2015

NOTE: "FAIR" INDICATES FEW OR NO CLOUDS BELOW 12,000 FEET WITH NO
SIGNIFICANT WEATHER AND/OR OBSTRUCTIONS TO VISIBILITY.

...SOUTH CENTRAL NEBRASKA...

CITY           SKY/WX    TMP DP  RH WIND       PRES   REMARKS
GRAND ISLAND   CLEAR     21  17  84 W6        30.23S WCI  13
HASTINGS       CLEAR     22  17  81 NW9       30.21S WCI  12
KEARNEY        CLEAR     23  18  80 W6        30.23S WCI  16
ORD            CLEAR     17  13  84 CALM      30.21S
YORK           CLEAR     27  25  93 NW8       30.21S WCI  18
AURORA         CLEAR     26  22  86 NW7       30.21S WCI  18
LEXINGTON      CLEAR     20  17  86 NW3       30.23F
HOLDREGE       FAIR      24  19  81 W6        30.23S WCI  17
HEBRON         CLEAR     29  24  80 NW7       30.22S WCI  22

...NEBRASKA PANHANDLE...

CITY           SKY/WX    TMP DP  RH WIND       PRES   REMARKS
CHADRON        CLOUDY    28  23  81 W5        30.15S WCI  23
ALLIANCE       PTCLDY    22  16  78 CALM      30.15F
SCOTTSBLUFF    CLEAR     25  21  85 NE3       30.16F
SIDNEY         MOCLDY    27  24  89 SW5       30.16F WCI  22

...WESTERN AND NORTH CENTRAL NEBRASKA...

CITY           SKY/WX    TMP DP  RH WIND       PRES   REMARKS
VALENTINE      CLEAR     18  15  88 SW3       30.18F
AINSWORTH      CLEAR     20  17  88 SW3       30.19F
ONEILL         CLEAR     22  18  86 W7        30.21F WCI  13
BROKEN BOW     CLEAR     16  11  80 CALM      30.21S
IMPERIAL         N/A     24  19  81 CALM      30.20F
NORTH PLATTE   CLEAR     19  15  84 NW3       30.21F
MCCOOK         CLEAR     20  16  84 SW7       30.24F WCI  11

...EASTERN NEBRASKA...

CITY           SKY/WX    TMP DP  RH WIND       PRES   REMARKS
NORFOLK        CLEAR     24  19  81 W6        30.20F WCI  17
SO SIOUX CITY  CLEAR     24  18  77 NW6       30.19F WCI  17
TEKAMAH        CLEAR     28  21  75 W14       30.19F WCI  17
COLUMBUS       CLEAR     25  16  68 NW7       30.22S WCI  17
ALBION         PTCLDY    21  18  85 N7        30.21S WCI  13
OMAHA EPPLEY   CLEAR     26  23  88 N6        30.19S WCI  19
OFFUTT AFB     CLEAR     25  22  87 NW9       30.18S WCI  15
MILLARD        CLEAR     29  23  78 W5        30.19S WCI  24
LINCOLN        CLEAR     30  24  78 N3        30.22R
NEBRASKA CITY  CLEAR     30  25  82 N7        30.18R WCI  23
BEATRICE       CLEAR     27  24  87 CALM      30.20R
FALLS CITY     FAIR      31  27  85 NW5       30.19R WCI  26

...NORTHERN KANSAS...

CITY           SKY/WX    TMP DP  RH WIND       PRES   REMARKS
GOODLAND       PTCLDY    27  24  89 W7        30.20F WCI  19
HILL CITY      CLEAR     25  21  85 W5        30.25F WCI  19
NORTON         SUNNY     21  16  79 W6        30.23S WCI  14
PHILLIPSBURG   CLEAR     27  25  93 W8        30.25F WCI  18
SMITH CENTER   CLEAR     25  21  86 N5        30.25S WCI  19
BELOIT         CLEAR     28  23  80 W6        30.24R WCI  22
HAYS           CLEAR     28  18  64 NW7       30.24S WCI  21
RUSSELL        CLEAR     28  25  88 NW9       30.23R WCI  19
CONCORDIA      CLEAR     29  25  85 NW8       30.22R WCI  21
SALINA         PTCLDY    31  27  85 NW8       30.23R WCI  23
TOPEKA         PTCLDY    34  31  88 W6        30.18S WCI  29



USA.gov is the U.S. government's official web portal to all federal, state and local government web resources and services.